Le nostre stazioni meteo in Italia

Pubblicità
Il mio iltempo24.it
Mt. St.Vincent, Francia (7382): Temperatura & dewpoint: 15.08.2019 14:00:00 - 21.08.2019 14:00:00 (CEST)Mt. St.Vincent, Francia (7382): velocità del vento & gusts: 15.08.2019 14:00:00 - 21.08.2019 14:00:00 (CEST)Mt. St.Vincent, Francia (7382): direzione del vento: 15.08.2019 14:00:00 - 21.08.2019 14:00:00 (CEST)Mt. St.Vincent, Francia (7382): ore di luce: 15.08.2019 14:00:00 - 21.08.2019 14:00:00 (CEST)Mt. St.Vincent, Francia (7382): precipitazioni: 15.08.2019 14:00:00 - 21.08.2019 14:00:00 (CEST)
Data & Tempo tt [°C] td [°C] ff [km/h] ff [kn] fx [km/h] fx [kn] dd sd [min] rr [mm]
21.08.2019 14:00:00 - - - - - - - - -
21.08.2019 13:00:00 19,2 9,9 22 12 59 32 NE 60 0,0
21.08.2019 12:00:00 18,0 9,3 24 13 55 30 NE 60 0,0
21.08.2019 11:00:00 16,8 9,0 22 12 52 28 NE 60 0,0
21.08.2019 10:00:00 15,7 9,4 22 12 46 25 NE 60 0,0
21.08.2019 09:00:00 14,3 9,7 21 11 50 27 NE 60 0,0
21.08.2019 08:00:00 12,5 9,3 21 11 44 24 NE 48 -
21.08.2019 07:00:00 11,5 9,6 18 10 41 22 NE 0 0,0
21.08.2019 06:00:00 11,4 10,9 18 10 39 21 NE 0 0,0
21.08.2019 05:00:00 11,5 11,3 13 7 31 17 NE 0 0,2
21.08.2019 04:00:00 11,6 11,3 15 8 22 12 NE 0 0,0
21.08.2019 03:00:00 11,7 10,6 9 5 18 10 NE 0 0,0
21.08.2019 02:00:00 12,4 10,5 11 6 22 12 NE 0 -
21.08.2019 01:00:00 12,8 9,1 13 7 21 11 NE 0 0,0
21.08.2019 00:00:00 13,2 8,3 13 7 18 10 NE 0 0,0
20.08.2019 23:00:00 13,2 9,3 13 7 16 9 ENE 0 0,0
20.08.2019 22:00:00 13,5 8,1 11 6 13 7 E 0 0,0
20.08.2019 21:00:00 13,7 9,9 9 5 15 8 E 18 0,0
20.08.2019 20:00:00 14,9 11,1 11 6 18 10 E 60 -
20.08.2019 19:00:00 16,0 11,2 13 7 22 12 E 48 0,0
20.08.2019 18:00:00 16,2 10,9 11 6 16 9 E 6 0,0
20.08.2019 17:00:00 16,3 10,2 4 2 11 6 SE 0 0,0
20.08.2019 16:00:00 16,3 11,0 8 4 11 6 ENE 0 0,0
20.08.2019 15:00:00 16,3 9,7 4 2 16 9 N 0 0,0
20.08.2019 14:00:00 16,2 9,4 5 3 21 11 NNE 0 -
20.08.2019 13:00:00 - - - - - - - - -
20.08.2019 12:00:00 15,3 8,8 8 4 26 14 NNE 0 0,0
20.08.2019 11:00:00 14,8 8,3 11 6 28 15 NNE 0 0,0
20.08.2019 10:00:00 14,3 8,3 13 7 26 14 NE 0 0,0
20.08.2019 09:00:00 14,2 8,4 11 6 28 15 NE 0 0,0
20.08.2019 08:00:00 13,8 8,4 15 8 29 16 NE 0 -
20.08.2019 07:00:00 14,8 8,5 16 9 29 16 NNE 0 0,0
20.08.2019 06:00:00 14,1 8,5 13 7 34 18 NE 0 0,0
20.08.2019 05:00:00 14,5 8,4 16 9 31 17 NE 0 0,0
20.08.2019 04:00:00 14,6 8,5 16 9 29 16 NE 0 0,0
20.08.2019 03:00:00 14,6 8,3 13 7 29 16 NNE 0 0,0
20.08.2019 02:00:00 15,2 8,2 11 6 28 15 NNE 0 -
20.08.2019 01:00:00 15,5 7,5 8 4 22 12 N 0 0,0
20.08.2019 00:00:00 15,3 7,6 5 3 15 8 ONO 0 0,0
19.08.2019 23:00:00 15,7 7,5 4 2 18 10 NO 0 0,0
19.08.2019 22:00:00 16,6 7,8 9 5 18 10 ONO 0 0,0
19.08.2019 21:00:00 16,8 7,7 9 5 15 8 O 12 0,0
19.08.2019 20:00:00 17,9 8,2 11 6 18 10 O 6 -
19.08.2019 19:00:00 18,5 8,5 9 5 22 12 ONO 0 0,0
19.08.2019 18:00:00 19,8 8,2 5 3 31 17 NO 24 0,0
19.08.2019 17:00:00 20,2 8,8 13 7 34 18 ONO 48 0,0
19.08.2019 16:00:00 20,4 8,1 15 8 35 19 ONO 54 0,0
19.08.2019 15:00:00 20,6 10,1 15 8 29 16 O 36 0,0
19.08.2019 14:00:00 18,3 9,6 18 10 31 17 O 36 -
19.08.2019 13:00:00 17,5 10,8 15 8 31 17 O 48 0,0
19.08.2019 12:00:00 15,8 9,5 18 10 31 17 O 6 0,0
19.08.2019 11:00:00 14,6 11,4 16 9 34 18 O 12 0,0
19.08.2019 10:00:00 13,9 11,8 21 11 37 20 O 12 0,0
19.08.2019 09:00:00 13,6 12,3 15 8 41 22 ONO 12 0,0
19.08.2019 08:00:00 13,3 13,1 24 13 39 21 O 0 -
19.08.2019 07:00:00 13,8 13,8 18 10 31 17 O 0 0,0
19.08.2019 06:00:00 14,2 14,2 18 10 29 16 ONO 0 0,0
19.08.2019 05:00:00 14,6 14,4 16 9 34 18 O 0 0,2
19.08.2019 04:00:00 15,0 14,7 22 12 31 17 O 0 0,0
19.08.2019 03:00:00 15,5 14,5 21 11 35 19 O 0 0,0
19.08.2019 02:00:00 16,1 14,5 16 9 35 19 ONO 0 -
19.08.2019 01:00:00 16,8 14,4 18 10 34 18 ONO 0 0,2
19.08.2019 00:00:00 18,2 15,6 15 8 26 14 O 0 0,0
18.08.2019 23:00:00 18,4 15,6 5 3 28 15 ONO 0 0,0
18.08.2019 22:00:00 19,3 16,1 9 5 28 15 ONO 0 0,0
18.08.2019 21:00:00 19,7 15,8 4 2 39 21 NNO 0 0,0
18.08.2019 20:00:00 22,2 15,5 15 8 48 26 ONO 30 -
18.08.2019 19:00:00 23,9 15,9 18 10 39 21 ONO 6 0,0
18.08.2019 18:00:00 25,4 16,5 9 5 31 17 ONO 18 0,0
18.08.2019 17:00:00 24,9 16,3 11 6 35 19 ONO 24 0,0
18.08.2019 16:00:00 27,1 17,3 11 6 29 16 ONO 54 0,0
18.08.2019 15:00:00 25,7 16,3 18 10 35 19 ONO 54 0,0
18.08.2019 14:00:00 24,9 15,2 18 10 46 25 O 36 -
18.08.2019 13:00:00 26,3 14,4 24 13 46 25 OSO 48 0,0
18.08.2019 12:00:00 25,1 15,4 18 10 29 16 O 36 0,0
18.08.2019 11:00:00 24,6 15,0 8 4 22 12 SO 60 0,0
18.08.2019 10:00:00 23,7 13,8 9 5 16 9 SE 60 0,0
18.08.2019 09:00:00 23,3 13,7 9 5 18 10 SE 60 0,0
18.08.2019 08:00:00 20,7 12,7 13 7 24 13 SSO 54 -
18.08.2019 07:00:00 20,6 12,6 18 10 29 16 OSO 0 0,0
18.08.2019 06:00:00 21,2 11,5 16 9 24 13 OSO 0 0,0
18.08.2019 05:00:00 21,1 13,5 13 7 21 11 SSE 0 0,0
18.08.2019 04:00:00 20,6 13,8 15 8 22 12 SSE 0 0,0
18.08.2019 03:00:00 19,6 14,4 8 4 29 16 S 0 0,0
18.08.2019 02:00:00 20,7 14,6 22 12 37 20 O 0 -
18.08.2019 01:00:00 21,0 14,2 22 12 34 18 O 0 0,0
18.08.2019 00:00:00 21,6 13,5 18 10 31 17 O 0 0,0
17.08.2019 23:00:00 22,5 13,0 18 10 31 17 O 0 0,0
17.08.2019 22:00:00 23,1 12,4 16 9 28 15 O 0 0,0
17.08.2019 21:00:00 24,1 12,4 15 8 31 17 O 12 0,0
17.08.2019 20:00:00 25,5 12,0 16 9 41 22 O 24 -
17.08.2019 19:00:00 25,2 11,7 21 11 39 21 O 0 0,0
17.08.2019 18:00:00 25,1 12,3 18 10 24 13 OSO 0 0,0
17.08.2019 17:00:00 26,7 11,6 16 9 37 20 SO 12 0,0
17.08.2019 16:00:00 26,6 12,3 18 10 35 19 OSO 18 0,0
17.08.2019 15:00:00 24,6 10,5 22 12 37 20 OSO 0 0,0
17.08.2019 14:00:00 24,5 9,2 18 10 35 19 OSO 6 -
17.08.2019 13:00:00 25,8 10,0 13 7 44 24 OSO 54 0,0
17.08.2019 12:00:00 23,7 11,7 15 8 31 17 OSO 48 0,0
17.08.2019 11:00:00 20,9 11,8 9 5 18 10 SSO 6 0,0
17.08.2019 10:00:00 19,3 11,6 11 6 24 13 SSO 0 0,0
17.08.2019 09:00:00 17,8 11,1 15 8 31 17 SO 0 0,0
17.08.2019 08:00:00 16,8 10,6 22 12 37 20 O 0 -
17.08.2019 07:00:00 16,6 10,7 24 13 39 21 O 0 0,0
17.08.2019 06:00:00 16,8 11,1 24 13 37 20 O 0 0,0
17.08.2019 05:00:00 17,4 11,2 24 13 39 21 O 0 0,0
17.08.2019 04:00:00 17,1 11,4 22 12 34 18 O 0 0,0
17.08.2019 03:00:00 17,4 11,2 22 12 41 22 O 0 0,0
17.08.2019 02:00:00 19,1 10,9 26 14 42 23 SO 0 -
17.08.2019 01:00:00 19,3 11,1 18 10 29 16 SSO 0 0,0
17.08.2019 00:00:00 19,1 11,4 16 9 22 12 SSO 0 0,0
16.08.2019 23:00:00 18,6 11,2 15 8 24 13 SSE 0 0,0
16.08.2019 22:00:00 18,8 11,8 13 7 21 11 SE 0 0,0
16.08.2019 21:00:00 19,0 11,6 15 8 18 10 ESE 0 0,0
16.08.2019 20:00:00 20,1 11,8 15 8 21 11 ESE 36 -
16.08.2019 19:00:00 21,0 12,2 13 7 22 12 ESE 36 0,0
16.08.2019 18:00:00 21,9 11,9 8 4 21 11 SSE 54 0,0
16.08.2019 17:00:00 22,5 11,6 5 3 24 13 SE 48 0,0
16.08.2019 16:00:00 22,1 11,8 9 5 21 11 SE 60 0,0
16.08.2019 15:00:00 21,8 11,5 9 5 21 11 O 48 0,0
16.08.2019 14:00:00 21,1 11,4 5 3 21 11 ONO 54 -
16.08.2019 13:00:00 20,2 11,4 4 2 18 10 S 42 0,0
16.08.2019 12:00:00 19,4 11,9 9 5 22 12 ESE 54 0,0
16.08.2019 11:00:00 17,3 12,2 9 5 22 12 E 48 0,0
16.08.2019 10:00:00 17,0 11,5 13 7 21 11 E 60 0,0
16.08.2019 09:00:00 16,7 11,4 4 2 15 8 NE 54 0,0
16.08.2019 08:00:00 15,1 10,3 5 3 16 9 N 54 -
16.08.2019 07:00:00 13,2 9,8 8 4 16 9 NNO 0 0,0
16.08.2019 06:00:00 12,7 9,5 5 3 16 9 NNO 0 0,0
16.08.2019 05:00:00 13,3 9,7 11 6 22 12 ONO 0 0,0
16.08.2019 04:00:00 13,7 9,5 16 9 26 14 ONO 0 0,0
16.08.2019 03:00:00 14,1 9,5 15 8 24 13 ONO 0 0,0
16.08.2019 02:00:00 14,4 9,2 13 7 28 15 ONO 0 -
16.08.2019 01:00:00 14,7 9,1 15 8 31 17 ONO 0 0,0
16.08.2019 00:00:00 15,2 9,1 21 11 34 18 ONO 0 0,0
15.08.2019 23:00:00 15,4 8,6 21 11 31 17 ONO 0 0,0
15.08.2019 22:00:00 15,8 9,0 13 7 29 16 ONO 0 0,0
15.08.2019 21:00:00 16,4 8,9 16 9 34 18 O 30 0,0
15.08.2019 20:00:00 18,1 10,2 16 9 41 22 ONO 42 -
15.08.2019 19:00:00 18,9 11,0 21 11 41 22 O 48 0,0
15.08.2019 18:00:00 20,3 11,0 18 10 46 25 ONO 30 0,0
15.08.2019 17:00:00 18,9 10,5 16 9 48 26 ONO 18 0,0
15.08.2019 16:00:00 19,7 9,6 24 13 50 27 O 42 0,0
15.08.2019 15:00:00 19,0 10,5 16 9 48 26 ONO 30 0,0
15.08.2019 14:00:00 19,3 11,1 31 17 55 30 O 36 -

tt = Temperatura
td = dewpoint
ff = velocità del vento
fx = gusts
dd = direzione del vento
sd = ore di luce
rr = precipitazioni

Stazioni seguenti

WeatherPro
AMSI
MeteoEarth